Preview of NWS' New Version of Forecast
This preview is not operational and should not be used for support decisions.

Regional Weather Roundup (RWR)

Issued by Gray - Portland, ME (GYX)

                            
350 
ASUS41 KGYX 201705
RWRGYX
WEATHER ROUNDUP FOR MAINE AND NEW HAMPSHIRE
NATIONAL WEATHER SERVICE GRAY ME
100 PM EDT FRI APR 20 2018

MEZ002-005-006-010-012-015-018-020-021-024-026-027-029-201800-
MAINE
  
CITY           SKY/WX    TMP DP  RH WIND       PRES   REMARKS
PORTLAND       CLOUDY    49  30  48 NW17G31   29.96R                  
SANFORD        CLOUDY    47  28  47 NW10G17   29.98R                  
BAR HARBOR     CLOUDY    45  35  68 NW13      29.88R                  
WISCASSET      PTSUNNY   50  30  46 VRB6G17   29.93R                  
ROCKLAND       CLOUDY    47  32  56 NW10G17   29.90R                  
FRYEBURG       CLOUDY    45  29  53 W10G21    29.98R                  
LEWISTONAUBURN CLOUDY    48  28  46 NW18G29   29.93R                  
AUGUSTA        PTSUNNY   48  28  46 N22G31    29.92R                  
WATERVILLE     CLOUDY    48  29  47 N14G26    29.89R                  
BANGOR         CLOUDY    46  36  68 NW14      29.90R                  
GREENVILLE       N/A     38  30  73 NW14G24   29.86S                  
MILLINOCKET    PTSUNNY   45  33  63 N10       29.89S                  
HOULTON        FAIR      40  32  73 N14       29.86S                  
PRESQUE ISLE   PTSUNNY   41  28  60 N8        29.90R                  
FRENCHVILLE    LGT RAIN  40  31  70 NW14      29.88R                  
CARIBOU        PTSUNNY   41  29  62 N5        29.88R                  
$$

NHZ002-005-008-009-011-012-014-201800-
NEW HAMPSHIRE
  
CITY           SKY/WX    TMP DP  RH WIND       PRES   REMARKS
PORTSMOUTH     PTSUNNY   49  27  42 NW22      29.98R                  
ROCHESTER      FAIR      48  30  49 NW23G32   29.98R                  
NASHUA         PTSUNNY   47  26  44 NW18G26   30.04R                  
MANCHESTER     PTSUNNY   49  25  39 N22G29    30.03R                  
CONCORD        PTSUNNY   48  27  44 NW18G25   30.04R                  
LACONIA        CLOUDY    42  27  55 NW17G26   30.04R                  
PLYMOUTH       CLOUDY    41  29  61 NW15G22   30.06R                  
BERLIN         CLOUDY    39  30  70 W9G18     29.99R                  
WHITEFIELD     CLOUDY    36  28  73 NW14      30.04R                  
JAFFREY        PTSUNNY   42  27  55 NW8G17    30.05R                  
KEENE          PTSUNNY   47  27  45 N16G24    30.08S                  
LEBANON        CLOUDY    41  25  53 NW12G18   30.09R                  
MT WASHINGTON  BLWGSNOW  18  18 100 NW47G53     N/A  VSB 0   WCI  -6  
$$

VTZ005-007-008-201800-
VERMONT
  
CITY           SKY/WX    TMP DP  RH WIND       PRES   REMARKS
ST JOHNSBURY     N/A     38  28  67 MISG      30.06R                  
MONTPELIER     CLOUDY    34  29  82 NW17      30.13R                  
BURLINGTON     CLOUDY    37  27  67 NW14      30.16R                  
$$

MAZ007-012-024-CTZ003-RIZ002-NYZ038-NYZ072-201800-
SOUTHERN NEW ENGLAND AND NY
  
CITY           SKY/WX    TMP DP  RH WIND       PRES   REMARKS
BOSTON         PTSUNNY   49  27  42 NW21G26   30.02R                  
WORCESTER      FAIR      44  24  45 NW20G28   30.03R                  
NANTUCKET      FAIR      49  31  49 NW17      30.02R                  
PROVIDENCE     FAIR      50  28  42 N15G32    30.05R                  
HARTFORD       FAIR      48  24  39 NW13G21   30.10S                  
ALBANY         PTSUNNY   44  23  43 W17G29    30.18S                  
NEW YORK CITY  FAIR      48  24  39 NW16      30.17S                  
$$

ANZ081-ANZ082-ANZ150-NHZ014-MEZ023>029-201800-
COASTAL MARINE OBSERVATIONS
  
STATION/POSITION TIME  TEMP    WIND        PRES    WAVE
                       AIR SEA DIR/SP/G            HT/PER
                 (UTC) (F)     (DEG/KT/KT) (MB)    (FT/S)
MOUNT DESERT ROC 1700   41     290/  8/  9 1012.3R
MATINICUS ROCK   1600   42     360/ 14/ 15 1011.9R
ISLE OF SHOALS   1600   44     290/ 21/ 24 1014.2R
JEFFREYS LEDGE   1636      41                N/A     4/ 5
CASHES LEDGE BUO 1650   43 41              1013.4R   4/ 5
$$

.............KEY..............
   WCI - WIND CHILL
   TC  - TEMPERATURE IN CELSIUS
   VSB - VISIBILITY IN MILES
   HX  - HEAT INDEX
   FAIR- INDICATES FEW OR NO CLOUDS BELOW 12,000 FT, WITH NO 
         SIGNIFICANT WEATHER AND/OR OBSTRUCTIONS TO VISIBILITY.